Jordan, MT

3:43 AM MDT on June 28, 2017 (GMT -0600)
Jordan

Weather History for KJDN - September, 2014

Change the Weather History Date:

Wednesday, September 3, 2014

  Actual Average Record
Temperature  
Mean Temperature 62 °F 63 °F  
Max Temperature 78 °F 80 °F 100 °F (2005)
Min Temperature 46 °F 46 °F 29 °F (1959)
Degree Days  
Heating Degree Days 3 4  
Month to date heating degree days 11 12  
Since 1 July heating degree days 60 77  
Cooling Degree Days 0 2  
Month to date cooling degree days 0 6  
Year to date cooling degree days 451 399  
Growing Degree Days 12 (Base 50)    
Moisture  
Dew Point 46 °F    
Average Humidity 66    
Maximum Humidity 93    
Minimum Humidity 39    
Precipitation  
Precipitation 0.03 in 0.03 in 0.34 in (1999)
Month to date precipitation 0.03 0.10  
Year to date precipitation 11.92 10.02  
Snow  
Snow 0.00 in - - ()
Month to date snowfall 0.0  
Since 1 July snowfall 0.0  
Since 1 September snowfall 0.0  
Snow Depth 0.00 in    
Sea Level Pressure  
Sea Level Pressure 29.68 in    
Wind  
Wind Speed 10 mph (NNW)    
Max Wind Speed 39 mph    
Max Gust Speed 46 mph    
T = Trace of Precipitation, MM = Missing Value Source: NWS Daily Summary

Daily Weather History Graph

Daily Weather History Graph

Search for Another Location

Airport or City:

Trip Planner

Search our weather history database for the weather conditions in past years. The results will help you decide how hot, cold, wet, or windy it might be!

Date:

Astronomy

Sep. 03, 2014 Rise Set
Actual Time 6:29 AM MDT 7:43 PM MDT
Civil Twilight 5:57 AM MDT 8:15 PM MDT
Nautical Twilight 5:19 AM MDT 8:53 PM MDT
Astronomical Twilight 4:38 AM MDT 9:33 PM MDT
Moon 3:41 PM MDT (9/3) 12:13 AM MDT (9/3)
Length of Visible Light 14h 17m
Length of Day
13h 14m
Waxing Gibbous, 64% of the Moon is Illuminated
Sep 3
Waxing Gibbous
Sep 8
Full
Sep 15
Last Quarter
Sep 24
New
Oct 1
First Quarter

Hourly Weather History & Observations

Time (MDT) Temp. Dew Point Humidity Pressure Visibility Wind Dir Wind Speed Gust Speed Precip Events Conditions
12:48 AM 50.0 °F 46.0 °F 86% 29.68 in - Calm Calm - N/A   Unknown
1:48 AM 48.0 °F 45.0 °F 89% 29.66 in - Calm Calm - N/A   Unknown
2:48 AM 48.9 °F 46.0 °F 90% 29.64 in - Calm Calm - N/A   Unknown
3:48 AM 48.9 °F 45.0 °F 86% 29.62 in - Calm Calm - N/A   Unknown
4:48 AM 50.0 °F 44.1 °F 80% 29.60 in - East 3.5 mph - N/A   Unknown
5:48 AM 48.0 °F 44.1 °F 86% 29.60 in - Calm Calm - N/A   Unknown
6:48 AM 46.9 °F 44.1 °F 90% 29.62 in - ESE 3.5 mph - N/A   Unknown
7:48 AM 48.9 °F 46.0 °F 90% 29.62 in - Calm Calm - N/A   Unknown
8:48 AM 57.0 °F 48.9 °F 74% 29.62 in - SSE 3.5 mph - N/A   Unknown
9:48 AM 64.0 °F 46.0 °F 52% 29.57 in - East 9.2 mph - N/A   Unknown
10:48 AM 68.0 °F 48.0 °F 49% 29.57 in - SE 6.9 mph 18.4 mph N/A   Unknown
11:48 AM 72.0 °F 48.9 °F 44% 29.57 in - NE 4.6 mph - N/A   Unknown
12:48 PM 73.9 °F 48.9 °F 41% 29.56 in - Variable 3.5 mph - N/A   Unknown
1:48 PM 75.9 °F 50.0 °F 40% 29.59 in - NW 8.1 mph - N/A   Unknown
2:48 PM 77.0 °F 50.0 °F 39% 29.59 in - WNW 11.5 mph 18.4 mph N/A   Unknown
4:48 PM 70.0 °F 53.1 °F 55% 29.68 in - NW 32.2 mph 46.0 mph N/A   Unknown
5:48 PM 63.0 °F 46.0 °F 54% 29.77 in - NW 18.4 mph 39.1 mph N/A   Unknown
6:48 PM 57.0 °F 48.0 °F 72% 29.81 in - NW 21.9 mph - 0.03 in   Unknown
7:48 PM 59.0 °F 43.0 °F 55% 29.83 in - NW 13.8 mph - N/A   Unknown
8:48 PM 57.0 °F 44.1 °F 62% 29.81 in - North 12.7 mph - N/A   Unknown
9:48 PM 55.0 °F 45.0 °F 69% 29.83 in - NNW 8.1 mph - N/A   Unknown
10:48 PM 53.1 °F 46.0 °F 77% 29.87 in - West 5.8 mph - N/A   Unknown
11:48 PM 54.0 °F 42.1 °F 64% 29.86 in - West 18.4 mph - N/A   Unknown